This is the latest recevied weather packets stored in our database for station/object KB2AHZ. If no packets are shown the sender has not sent any weather packets the latest 10 day(s).
| Time | Temp. | Humidity | Pressure | Rain* | Wind** | Luminosity | Snow |
|---|---|---|---|---|---|---|---|
| 1777944473 | 18.89° C | 56% | 1013.5 hPa | 0 mm | - | 0 W/m² | - |
| 1777944170 | 18.89° C | 55% | 1013.8 hPa | 0 mm | - | 0 W/m² | - |
| 1777943866 | 18.89° C | 55% | 1013.6 hPa | 0 mm | - | 0 W/m² | - |
| 1777943563 | 18.89° C | 55% | 1013.7 hPa | 0 mm | - | 0 W/m² | - |
| 1777943259 | 19.44° C | 55% | 1013.6 hPa | 0 mm | - | 0 W/m² | - |
| 1777942955 | 19.44° C | 54% | 1013.5 hPa | 0 mm | - | 0 W/m² | - |
| 1777942652 | 20° C | 54% | 1013.2 hPa | 0 mm | - | 0 W/m² | - |
| 1777942349 | 20° C | 55% | 1013.3 hPa | 0 mm | - | 0 W/m² | - |
| 1777942046 | 20.56° C | 50% | 1013.1 hPa | 0 mm | - | 0 W/m² | - |
| 1777941742 | 21.11° C | 48% | 1013.1 hPa | 0 mm | - | 0 W/m² | - |
| 1777941439 | 21.11° C | 53% | 1013.2 hPa | 0 mm | - | 0 W/m² | - |
| 1777941137 | 21.11° C | 51% | 1013.5 hPa | 0 mm | - | 0 W/m² | - |
| 1777940833 | 21.11° C | 48% | 1013.1 hPa | 0 mm | - | 0 W/m² | - |
| 1777940531 | 21.11° C | 49% | 1013.3 hPa | 0 mm | - | 0 W/m² | - |
| 1777940228 | 21.67° C | 47% | 1013.3 hPa | 0 mm | - | 0 W/m² | - |
| 1777939926 | 21.67° C | 46% | 1013.2 hPa | 0 mm | - | 1 W/m² | - |
| 1777939623 | 21.67° C | 46% | 1013.1 hPa | 0 mm | - | 2 W/m² | - |
| 1777939320 | 21.67° C | 48% | 1013.3 hPa | 0 mm | - | 4 W/m² | - |
| 1777939016 | 22.22° C | 48% | 1013.1 hPa | 0 mm | - | 7 W/m² | - |
| 1777938713 | 22.78° C | 45% | 1013.1 hPa | 0 mm | - | 10 W/m² | - |
| 1777938411 | 22.78° C | 45% | 1013.1 hPa | 0 mm | - | 13 W/m² | - |
| 1777938107 | 22.78° C | 46% | 1013.1 hPa | 0 mm | - | 17 W/m² | - |
| 1777937803 | 22.78° C | 43% | 1012.8 hPa | 0 mm | - | 21 W/m² | - |
| 1777937499 | 23.33° C | 43% | 1012.8 hPa | 0 mm | - | 25 W/m² | - |
| 1777937197 | 23.33° C | 43% | 1013 hPa | 0 mm | - | 30 W/m² | - |
* Rain latest hour (hover to see other rain measurements)
** Current wind speed in m/s (hover to see current wind gust speed)